HELLAS-SAT 4 & SGS-1

Last updated on Oct. 23, 2020, 5:56 a.m. UTC

1 44034U 19007A   20296.81993694  .00000138  00000-0  00000-0 0  9992
2 44034   0.0679 122.5917 0005835  44.6146 198.6851  1.00272756  6668
UTC
Height (km)
Latitude
Longitude
Inclination
Orbital Period
UTC large
Height (km)
Speed (km/s)
/
Latitude / Longitude
Inclination (degrees)
Orbital Period (minutes)
Azimuth
Elevation
Range (km)
Doppler Factor
iOS Compass Heading
iOS Angle

Next 30 passes for location: Hong Kong

Rise time Rise Azimuth (degrees) Set time Set Azimuth (degrees) Duration Max altitude (degrees)

No matching passes for this satellites